Tracking 29892 objects as of 21-Nov-2024
HD Live streaming from Space Station
objects crossing your sky now

FENGYUN 1C DEB

Track FENGYUN 1C DEB now!
10-day predictions


NORAD ID: 33502
Int'l Code: 1999-025DCF
Perigee: 786.7 km
Apogee: 910.4 km
Inclination: 99.0 °
Period: 101.7 minutes
Semi major axis: 7219 km
RCS: 0.05 m2 (small)
Launch date: May 10, 1999
Source: People's Republic of China (PRC)
Launch site: Taiyaun Space Center, China (TSC)

Note: This is SATELLITE DEBRIS
Your satellite tracking list
Your tracking list is empty




NASA's NSSDC Master Catalog

Two Line Element Set (TLE):
1 33502U 99025DCF 24324.40550258  .00007467  00000-0  37243-2 0  9997
2 33502  99.0119 254.4957 0085678 179.7077 296.7151 14.15259946814484
Source of the keplerian elements: AFSPC